Location: Excel
(51.3833°N, 110.5667°W)
Time: 19:42:02
(UTC+00:00)

Envisat - Pass Details

Date: 09 December 2021
Orbit: 764 x 766 km, 98.2° (Epoch: 26 January)

Event Time Altitude Azimuth Distance (km) Brightness Sun altitude
Rises 14:03:58 0° 5° (N) 3,248 6.1 -10.4°
Reaches altitude 10° 14:06:45 10° 351° (N) 2,316 5.2 -10.0°
Maximum altitude 14:10:32 21° 303° (WNW) 1,657 4.1 -9.5°
Drops below altitude 10° 14:14:18 10° 255° (WSW) 2,305 5.0 -9.0°
Sets 14:17:04 0° 240° (WSW) 3,226 5.9 -8.6°
